Location: Derby
(52.9213°N, 1.4761°W)
Time: 16:53:41
(UTC+01:00)

BlueWalker 3 - Visible Passes

Search period start: 19 April 2024 00:00
Search period end: 29 April 2024 00:00
Orbit: 485 x 495 km, 53.2° (Epoch: 19 April)

Date Brightness Start Highest point End Pass type
(mag) Time Alt. Az. Time Alt. Az. Time Alt. Az.
19 Apr 2.8 21:09:56 10° SSW 21:13:17 29° SE 21:16:39 10° E visible
19 Apr 1.7 22:47:24 10° WSW 22:51:13 80° SSE 22:52:17 45° E visible
20 Apr 4.1 00:25:40 10° W 00:26:45 18° W 00:26:45 18° W visible
20 Apr 1.8 22:22:46 10° WSW 22:26:36 78° SSE 22:29:02 21° E visible
21 Apr 3.0 00:01:02 10° W 00:03:28 37° W 00:03:28 37° W visible
21 Apr 1.8 21:58:07 10° WSW 22:01:57 77° SSE 22:05:31 12° E visible
21 Apr 1.9 23:36:22 10° W 23:39:56 75° WNW 23:39:56 75° WNW visible
22 Apr 1.8 21:33:27 10° WSW 21:37:16 76° SSE 21:41:06 10° E visible
22 Apr 1.8 23:11:42 10° W 23:15:33 85° N 23:16:14 58° E visible
23 Apr 4.3 00:49:58 10° W 00:50:39 14° W 00:50:39 14° W visible
23 Apr 1.9 21:08:46 10° WSW 21:12:34 74° SSE 21:16:24 10° E visible
23 Apr 1.8 22:47:01 10° W 22:50:51 85° N 22:52:25 34° E visible
24 Apr 3.8 00:25:17 10° W 00:26:50 22° W 00:26:50 22° W visible
24 Apr 1.9 22:22:17 10° W 22:26:07 85° N 22:28:32 22° E visible
25 Apr 3.1 00:00:33 10° W 00:02:56 34° W 00:02:56 34° W visible
25 Apr 1.9 21:57:32 10° W 22:01:22 84° N 22:04:35 14° E visible
25 Apr 2.3 23:35:49 10° W 23:39:00 49° WSW 23:39:00 49° WSW visible
26 Apr 1.9 21:32:46 10° W 21:36:36 84° N 21:40:27 10° E visible
26 Apr 1.9 23:11:02 10° W 23:14:48 56° SSW 23:15:01 55° S visible
27 Apr 2.0 21:07:59 10° W 21:11:49 84° N 21:15:40 10° E visible
27 Apr 2.0 22:46:15 10° W 22:50:01 58° SSW 22:51:01 42° SSE visible
28 Apr 4.5 00:25:04 10° W 00:25:25 11° W 00:25:25 11° W visible
28 Apr 2.0 22:21:26 10° W 22:25:12 59° SSW 22:27:00 28° SE visible
